COSMOS 2500 (755)

Last updated on Sun Sep 20 2026 00:03:20 GMT+0000 (Coordinated Universal Time)

1 40001U 14032A 26260.95096204 -.00000040 00000+0 00000+0 0 9999 2 40001 65.1732 310.5189 0009401 207.5444 152.4753 2.13101309 95436
UTC large
Height (km)
Speed (km/s)
/
Latitude / Longitude
Inclination (degrees)
Orbital Period (minutes)
Azimuth
Elevation
Range (km)
Doppler Factor

Next 0 passes for location: London (51.5072 / 0.1276)

No passes found over London.
COSMOS 2500 (755)